Tehachapi, CA (93561)

2:19 PM PDT on March 31, 2015 (GMT -0700)
SOR Ridge | | Change Station
CLOSE
Current Station
Personal Weather Station
Location: Tehachapi, CA
Elevation: 4596 ft
Nearby Weather Stations
Active Advisory: Wind Advisory Active Notice: Record Report

Elev 4596 ft 35.11 °N, 118.55 °W | Updated 20 seconds ago

Clear
Clear
56.3 °F
Feels Like 56.3 °F
N
0.0
Wind Variable Wind from SE
Gusts 0.0 mph

Today
High -- | Low -- °F
--% Chance of Precip.
Yesterday
High -- | Low -- °F
Precip. -- in
6:42 AM 7:14 PM
Waxing Gibbous, 89% visible
Pressure 30.11 in
Visibility 8.0 miles
Clouds Clear
Dew Point 12 °F
Humidity 17%
Rainfall 0.00 in
Snow Depth Not available.
UV 9 out of 12
Pollen 10.60 out of 12
Air Quality Not available.
Flu Activity Not available.
METAR KTSP 312115Z AUTO 31022G28KT 8SM CLR 16/M02 A3011 RMK AO2

More Conditions Fewer Conditions

Pressure 30.11 in
Visibility 8.0 miles
Clouds Clear
Dew Point 12 °F
Humidity 17%
Rainfall 0.00 in
Snow Depth Not available.
UV 9 out of 12
Pollen 10.60 out of 12
Air Quality Not available.
Flu Activity Not available.
METAR KTSP 312115Z AUTO 31022G28KT 8SM CLR 16/M02 A3011 RMK AO2

More Conditions Fewer Conditions

10-Day Weather Forecast

Almanac

Astronomy

Mar. 31, 2015 Rise Set
Actual Time
Civil Twilight
Nautical Twilight
Astronomical Twilight
Moon
Length of Visible Light
Length of Day
Tomorrow will be .
, % of the Moon is Illuminated

Today's Extremes

State Highs State Lows

Community

WunderPhotos

Upload Photos

1,809,839 photos uploaded!

WunderBlogs® & News

Nearby

Air Quality

  Air Quality AQ Index Pollutant
Not available.

Snow Depth

Station Depth Elevation

Earthquake Activity

City Distance Mag. Time & Date
Minimum magnitude displayed is 2.5.

Coastal Water Temperatures

Place Temperature

Stations

Nearby Weather Stations

Station Location Temp. Windchill Dew Point Humidity Wind Precip. Elev Updated Type
                   
Wind Advisory
Statement as of 11:06 AM PDT on March 31, 2015

... Wind Advisory remains in effect until 11 PM PDT this evening...

* winds... west 15 to 25 mph with gusts up to 55 mph.

* Timing... winds will pick up today with the strongest winds from
4pm through 8pm. Winds will gradually decrease later tonight.

* Impacts... blowing dust and sand are possible in the Kern
County desert areas below the passes... especially near Mojave
and along the Highway 14 corridor. Strong winds are possible
through the Tehachapi Pass along Highway 58.

Precautionary/preparedness actions...

A Wind Advisory means that winds of 45 mph are expected. Winds
this strong can make driving difficult... especially for high
profile vehicles. Use extra caution.